Regional Weather Roundup
Issued by NWS

Home | Current Version | Previous Version | Graphics & Text | Print | Product List | Glossary On
Versions: 1 2 3 4 5 6 7 8 9 10 11 12 13 14 15 16 17 18 19 20 21 22 23 24 25 26 27 28 29 30 31 32 33 34 35 36 37 38 39 40 41 42 43 44 45 46 47 48 49 50
000
ASUS44 KMEG 231810
RWRTN
TENNESSEE HOURLY STATE WEATHER ROUNDUP
NATIONAL WEATHER SERVICE MEMPHIS TN
100 PM CDT SAT JUL 23 2016

TNZ002-004-019-021-049-052-054-088>092-231900-
WEST TENNESSEE

CITY           SKY/WX    TMP DP  RH WIND       PRES   REMARKS
MEMPHIS INTL   CLOUDY    83  71  67 S10       30.00S
NWS MEMPHIS      N/A     80 N/A N/A MISG        N/A
JACKSON        MOSUNNY   88  75  65 W6        29.99F HX  97
DYERSBURG      PTSUNNY  N/A N/A N/A MISG        N/A
UNION CITY     MOSUNNY   88  77  70 VRB5      29.97S HX 100
PARIS          MOSUNNY   88  73  62 CALM      30.00F HX  96
LEXINGTON      SUNNY     91  73  55 SW8       29.98F HX 100
$$

TNZ008-025-027-028-033-062-065-066-231900-
NORTH MIDDLE TENNESSEE

CITY           SKY/WX    TMP DP  RH WIND       PRES   REMARKS
NASHVILLE      PTSUNNY   91  72  53 E7        29.99F HX  98
CLARKSVILLE    MOSUNNY   89  74  60 SW3       29.98F HX  98
SMYRNA         PTSUNNY   91  75  59 SW6       29.98F HX 101
COOKEVILLE     SUNNY     95  75  52 NW5       30.01F HX 107
CROSSVILLE     MOSUNNY   88  65  46 VRB5      30.07F HX  90
$$

TNZ061-075-076-078-094-096-097-231900-
SOUTH MIDDLE TENNESSEE

CITY           SKY/WX    TMP DP  RH WIND       PRES   REMARKS
FAYETTEVILLE   MOSUNNY   91  72  52 CALM      30.01F HX  98
TULLAHOMA      MOSUNNY   93  70  46 VRB6      30.02F HX  99
WINCHESTER     SUNNY     91  72  52 VRB6      30.01F HX  98
MCMINNVILLE    SUNNY     93  73  52 CALM      30.01F HX 102
COLUMBIA       SUNNY     95  73  49 SW6       29.98F HX 105
SHELBYVILLE    SUNNY     95  77  55 SW6       30.01F HX 109
$$

TNZ017-018-042-046-047-231900-
NORTHEAST TENNESSEE

CITY           SKY/WX    TMP DP  RH WIND       PRES   REMARKS
TRI CITIES     PTSUNNY   93  64  38 VRB6      30.04F HX  94
ELIZABETHTON   SUNNY     91  64  40 CALM      30.04F HX  93
$$

TNZ012-013-036-069-073-074-231900-
CENTRAL EAST TENNESSEE

CITY           SKY/WX    TMP DP  RH WIND       PRES   REMARKS
KNOXVILLE      PTSUNNY   94  70  45 VRB3      29.99F HX 100
OAK RIDGE      MOSUNNY   95  70  44 VRB6      30.01F HX 101
GATLINBURG       N/A     97  68  38 N7        29.99F HX 101
MORRISTOWN     MOSUNNY   91  70  49 SE6       30.02F HX  97
$$

TNZ083-085-099-231900-
SOUTHEAST TENNESSEE

CITY           SKY/WX    TMP DP  RH WIND       PRES   REMARKS
CHATTANOOGA    PTSUNNY   94  69  44 S7        29.99F HX  99
$$

SKY/WX REPORTED AS FAIR MEANS FEW OR NO CLOUDS BELOW
12 THOUSAND FEET.





USA.gov is the U.S. government's official web portal to all federal, state and local government web resources and services.